This is the latest recevied weather packets stored in our database for station/object K4AGR-13. If no packets are shown the sender has not sent any weather packets the latest 10 day(s).
| Time | Temp. | Humidity | Pressure | Rain* | Wind** | Luminosity | Snow |
|---|---|---|---|---|---|---|---|
| 1777228035 | 28.33° C | 49% | 1011.8 hPa | 0 mm | - | 398 W/m² | - |
| 1777227734 | 28.89° C | 50% | 1012 hPa | 0 mm | - | 332 W/m² | - |
| 1777227430 | 28.89° C | 49% | 1011.9 hPa | 0 mm | - | 422 W/m² | - |
| 1777227126 | 28.89° C | 49% | 1011.9 hPa | 0 mm | - | 560 W/m² | - |
| 1777226823 | 28.89° C | 49% | 1012.1 hPa | 0 mm | - | 514 W/m² | - |
| 1777226521 | 28.89° C | 49% | 1012 hPa | 0 mm | - | 532 W/m² | - |
| 1777226218 | 28.89° C | 49% | 1012.2 hPa | 0 mm | - | 497 W/m² | - |
| 1777225914 | 28.89° C | 50% | 1012.2 hPa | 0 mm | - | 447 W/m² | - |
| 1777225610 | 28.89° C | 50% | 1012.1 hPa | 0 mm | - | 416 W/m² | - |
| 1777225307 | 28.89° C | 51% | 1012.3 hPa | 0 mm | - | 601 W/m² | - |
| 1777225004 | 28.89° C | 50% | 1012.3 hPa | 0 mm | - | 491 W/m² | - |
| 1777224701 | 28.33° C | 50% | 1012.2 hPa | 0 mm | - | 511 W/m² | - |
| 1777224401 | 28.33° C | 50% | 1012.3 hPa | 0 mm | - | 409 W/m² | - |
| 1777224098 | 28.89° C | 49% | 1012.2 hPa | 0 mm | - | 478 W/m² | - |
| 1777223795 | 28.89° C | 49% | 1012.3 hPa | 0 mm | - | 518 W/m² | - |
| 1777223491 | 28.89° C | 49% | 1012.3 hPa | 0 mm | - | 664 W/m² | - |
| 1777223188 | 28.89° C | 48% | 1012.5 hPa | 0 mm | - | 568 W/m² | - |
| 1777222885 | 28.89° C | 48% | 1012.5 hPa | 0 mm | - | 506 W/m² | - |
| 1777222583 | 29.44° C | 49% | 1012.5 hPa | 0 mm | - | 811 W/m² | - |
| 1777222280 | 28.89° C | 50% | 1012.6 hPa | 0 mm | - | 782 W/m² | - |
| 1777221979 | 28.89° C | 49% | 1012.6 hPa | 0 mm | - | 837 W/m² | - |
| 1777221674 | 28.33° C | 51% | 1012.4 hPa | 0 mm | - | 819 W/m² | - |
| 1777221370 | 27.78° C | 53% | 1012.6 hPa | 0 mm | - | 876 W/m² | - |
| 1777221069 | 27.78° C | 53% | 1012.6 hPa | 0 mm | - | 677 W/m² | - |
| 1777220768 | 27.78° C | 52% | 1012.6 hPa | 0 mm | - | 300 W/m² | - |
* Rain latest hour (hover to see other rain measurements)
** Current wind speed in m/s (hover to see current wind gust speed)